[[{"header":{"parameterUnit":"m.s-1","parameterCategory":1,"la1":30.2991,"la2":30.254,"lo1":-89.0895,"lo2":-89.0444,"dy":0.0017,"dx":0.0017,"nx":28,"ny":28,"refTime":"2024-08-28T09:00:00:Z","depth":0,"parameterNumber":2,"parameterNumberName":"U-component_of_WINDS"},"data":[0,0,0,0,0,0,0,0,0,0,0,0,0,0,0,0,0,0,0,0,0,0,0,0,0,0,0,0,0,0,0,0,0,0,0,0,0,0,0,0,0,0,0,0,0,0,0,0,0,0,0,0,0,0,0,0,0,0,-3.9515,-3.9515,0,-3.9544,-3.9545,-3.9545,-3.9489,-3.9487,-3.9485,-3.9483,-3.9515,-3.9518,-3.952,0,0,0,0,0,0,0,0,0,0,0,0,0,-3.9411,-3.9413,-3.9515,-3.9515,-3.9515,-3.9544,-3.9545,-3.9545,-3.9489,-3.9487,-3.9484,-3.9482,-3.9514,-3.9517,-3.9521,0,0,0,0,0,0,0,0,0,0,0,0,0,-3.945,-3.9414,-3.9514,-3.9491,-3.9489,-3.9544,-3.9545,-3.9545,-3.9489,-3.9487,-3.9484,-3.9481,-3.9513,-3.9517,-3.9521,-3.9601,0,0,-3.9533,-3.9535,0,0,0,0,0,0,0,0,-3.9448,-3.9454,-3.9494,-3.9492,-3.949,-3.951,-3.952,-3.9564,-3.949,-3.9489,-3.9483,-3.948,-3.9516,-3.9519,-3.9531,-3.9603,-3.9604,-3.9533,-3.9536,-3.9537,-3.9538,0,0,0,0,0,0,0,-3.9445,-3.9452,-3.9526,-3.9494,-3.9492,-3.9479,-3.9482,-3.9528,-3.9518,-3.9489,-3.9485,-3.9489,-3.9514,-3.9528,-3.9532,-3.9605,-3.9533,-3.9537,-3.9539,-3.9541,-3.9746,-3.9749,0,0,0,0,0,0,-3.9445,-3.9451,-3.9525,-3.9527,-3.9462,-3.9484,-3.9486,-3.9507,-3.9517,-3.9516,-3.9492,-3.9487,-3.9522,-3.9527,-3.9532,-3.9628,-3.9537,-3.9541,-3.9543,-3.9743,-3.9747,-3.975,0,0,0,0,0,0,-3.9443,-3.9453,-3.9524,-3.9488,-3.9496,-3.9488,-3.9512,-3.9509,-3.9522,-3.9519,-3.9517,-3.9507,-3.952,-3.9527,-3.9585,-3.9628,-3.9543,-3.9546,-3.974,-3.9744,-3.9749,-3.9819,0,0,0,0,0,0,-3.9441,-3.9452,-3.9482,-3.9489,-3.9498,-3.9575,-3.9514,-3.9511,-3.9528,-3.9522,-3.9533,-3.9532,-3.9519,-3.958,-3.9589,-3.9632,-3.9549,-3.9736,-3.9742,-3.9747,-3.9813,-3.9826,-3.9837,0,0,0,0,0,-3.9437,-3.95,-3.9484,-3.9493,-3.9535,-3.9578,-3.9583,-3.9566,-3.9532,-3.9562,-3.9561,-3.9532,-3.9623,-3.9586,-3.9596,-3.9641,-3.9733,-3.974,-3.9747,-3.9808,-3.9823,-3.9837,0,0,0,0,0,0,-3.9498,-3.9501,-3.9482,-3.9549,-3.9564,-3.9568,-3.9605,-3.9583,-3.9607,-3.96,-3.9579,-3.9582,-3.9645,-3.9649,-3.9608,-3.9721,-3.9672,-3.9681,-3.9715,-3.973,-3.9741,-3.9739,-3.9553,0,0,0,0,0,-3.952,-3.9554,-3.9555,-3.9614,-3.9622,-3.9613,-3.9631,-3.9617,-3.9631,-3.9637,-3.964,-3.9656,-3.9688,-3.9709,-3.9739,-3.9814,-3.9817,-3.9851,-3.9863,-3.9872,-3.988,-3.9922,-3.9937,-3.9773,-3.9773,-3.9773,0,0,-3.9564,-3.957,-3.9592,-3.9626,-3.9636,-3.9673,-3.9618,-3.9659,-3.9687,-3.9643,-3.9698,-3.9702,-3.9718,-3.9785,-3.9815,-3.9791,-3.9927,-3.9881,-3.9889,-3.9892,-3.9931,-3.9946,-3.996,-3.9778,-3.9777,-3.9777,0,0,-3.9663,-3.9671,-3.9721,-3.9732,-3.9748,-3.9742,-3.9754,-3.9763,-3.9763,-3.9818,-3.9787,-3.982,-3.9876,-3.9889,-3.9903,-4.0011,-3.9985,-4.0021,-4.0083,-4.0124,-4.0137,-4.0148,-4.0187,-4.0201,-4.003,-4.003,-4.003,0,-3.9716,-3.9769,-3.975,-3.9794,-3.981,-3.9774,-3.9826,-3.9838,-3.9862,-3.9875,-3.9848,-3.9918,-3.9926,-3.9997,-4.0023,-4.0036,-4.005,-4.0019,-4.0136,-4.0147,-4.0158,-4.0194,-4.0209,-4.0034,-4.0034,-4.0033,-4.0033,0,-3.9833,-3.9871,-3.9911,-3.9935,-3.9957,-4.0004,-3.9994,-4.0018,-4.0003,-4.0001,-4.0058,-4.0067,-4.0099,-4.0115,-4.01,-4.0185,-4.0169,-4.014,-4.009,-4.0178,-4.0212,-4.0226,-4.004,-4.0039,-4.0037,-4.0036,0,0,-3.9969,-3.9985,-3.9999,-4.0011,-4.0027,-4.0056,-4.0103,-4.0134,-4.0155,-4.0175,-4.0214,-4.0263,-4.0237,-4.0253,-4.024,-4.0276,-4.0362,-4.0242,-4.0243,-4.0264,-4.0456,-4.0478,-4.0494,-4.0346,-4.0349,-4.0351,-4.0455,0,-4.0067,-4.0147,-4.0133,-4.0211,-4.0246,-4.0214,-4.0255,-4.027,-4.027,-4.0301,-4.0301,-4.0337,-4.0299,-4.0308,-4.0343,-4.0344,-4.04,-4.0337,-4.0383,-4.0385,-4.0378,-4.0512,-4.0534,-4.0632,-4.0468,-4.0471,-4.0472,0,-4.0191,-4.0215,-4.0297,-4.0309,-4.0324,-4.0361,-4.0389,-4.0419,-4.0436,-4.0434,-4.0453,-4.0435,-4.0483,-4.0435,-4.0502,-4.0459,-4.0478,-4.0482,-4.0485,-4.0488,-4.0433,-4.0518,-4.0663,-4.0677,-4.0493,-4.0491,-4.049,0,-4.0281,-4.0335,-4.0391,-4.0402,-4.0417,-4.0444,-4.0452,-4.0467,-4.0487,-4.0512,-4.0525,-4.0556,-4.0573,-4.0598,-4.0589,-4.0555,-4.0659,-4.0609,-4.0659,-4.0659,-4.068,-4.0679,-4.083,-4.0694,-4.0694,-4.0694,-4.0694,0,-4.0391,-4.0443,-4.0432,-4.0466,-4.0523,-4.0508,-4.0565,-4.057,-4.0584,-4.0619,-4.0594,-4.0628,-4.0615,-4.0649,-4.0642,-4.07,-4.0708,-4.0707,-4.0705,-4.0709,-4.0709,-4.072,-4.0712,-4.0698,-4.0697,-4.0696,-4.0696,0,-4.0501,-4.0495,-4.0554,-4.0565,-4.0569,-4.0611,-4.0621,-4.0654,-4.0653,-4.0699,-4.0709,-4.0707,-4.0746,-4.074,-4.0784,-4.0779,-4.0851,-4.084,-4.0845,-4.0842,-4.0892,-4.0887,-4.1054,-4.1075,-4.0927,-4.0928,-4.0929,0,-4.0571,-4.0609,-4.0625,-4.0647,-4.0657,-4.0693,-4.0713,-4.0701,-4.0724,-4.0749,-4.0779,-4.0816,-4.0844,-4.0909,-4.0912,-4.0946,-4.0936,-4.0992,-4.094,-4.0944,-4.0936,-4.0934,-4.0938,-4.1002,-4.1003,-4.1005,-4.1006,0,-4.0695,-4.0691,-4.0722,-4.0752,-4.0778,-4.0801,-4.0822,-4.0842,-4.0832,-4.086,-4.0899,-4.0921,-4.0967,-4.1004,-4.1036,-4.1045,-4.1025,-4.1023,-4.1036,-4.1039,-4.104,-4.104,-4.0871,-4.1018,-4.1017,-4.1016,-4.1015,-4.1015,-4.0787,-4.082,-4.0837,-4.0872,-4.0887,-4.0908,-4.094,-4.0944,-4.0976,-4.1011,-4.1003,-4.1048,-4.1067,-4.1108,-4.1122,-4.1158,-4.1137,-4.1156,-4.1161,-4.1166,-4.1171,-4.1036,-4.1164,-4.1163,-4.1163,-4.1163,-4.1163,0,-4.0909,-4.0919,-4.0952,-4.0983,-4.1012,-4.099,-4.1013,-4.1039,-4.1078,-4.1098,-4.1127,-4.1174,-4.1211,-4.1218,-4.1254,-4.1281,-4.1273,-4.1291,-4.1288,-4.1291,-4.1188,-4.1173,-4.1298,-4.1298,-4.1298,-4.1297,-4.1297,-4.1297,-4.0977,-4.1032,-4.1031,-4.1095,-4.1105,-4.1148,-4.1164,-4.1183,-4.1199,-4.1252,-4.1282,-4.1287,-4.1303,-4.134,-4.1373,-4.1375,-4.1389,-4.1411,-4.1409,-4.1312,-4.1298,-4.1285,-4.1271,-4.1414,-4.1415,-4.1509,-4.151,-4.1511]},{"header":{"parameterUnit":"m.s-1","parameterCategory":1,"la1":30.2991,"la2":30.254,"lo1":-89.0895,"lo2":-89.0444,"dy":0.0017,"dx":0.0017,"nx":28,"ny":28,"refTime":"2024-08-28T09:00:00:Z","depth":0,"parameterNumber":3,"parameterNumberName":"V-component_of_WINDS"},"data":[0,0,0,0,0,0,0,0,0,0,0,0,0,0,0,0,0,0,0,0,0,0,0,0,0,0,0,0,0,0,0,0,0,0,0,0,0,0,0,0,0,0,0,0,0,0,0,0,0,0,0,0,0,0,0,0,0,0,1.4536,1.4536,0,1.456,1.4561,1.4561,1.4582,1.4582,1.4583,1.4583,1.4606,1.4607,1.4607,0,0,0,0,0,0,0,0,0,0,0,0,0,1.4507,1.4507,1.4536,1.4536,1.4536,1.456,1.4561,1.4561,1.4582,1.4582,1.4583,1.4583,1.4606,1.4607,1.4607,0,0,0,0,0,0,0,0,0,0,0,0,0,1.4524,1.4508,1.4536,1.455,1.4551,1.456,1.4561,1.4561,1.4582,1.4582,1.4583,1.4583,1.4606,1.4607,1.4607,1.4603,0,0,1.4609,1.4609,0,0,0,0,0,0,0,0,1.4523,1.4525,1.4547,1.4549,1.4551,1.4569,1.4559,1.4575,1.4582,1.457,1.4583,1.4583,1.4593,1.4595,1.4599,1.4605,1.4606,1.4609,1.461,1.461,1.461,0,0,0,0,0,0,0,1.4522,1.4524,1.4545,1.4548,1.455,1.4555,1.4558,1.4562,1.4579,1.4571,1.4573,1.4576,1.4594,1.4598,1.46,1.4606,1.4609,1.461,1.461,1.461,1.4611,1.4611,0,0,0,0,0,0,1.4519,1.4523,1.4545,1.4546,1.4538,1.4555,1.4558,1.4562,1.4579,1.4582,1.4575,1.4577,1.4597,1.4599,1.46,1.4598,1.461,1.461,1.4611,1.4612,1.4611,1.4611,0,0,0,0,0,0,1.4518,1.452,1.4544,1.4535,1.4538,1.4555,1.456,1.4563,1.4567,1.4583,1.4586,1.4576,1.4597,1.46,1.4603,1.4599,1.4611,1.4611,1.4612,1.4612,1.4611,1.4592,0,0,0,0,0,0,1.4517,1.452,1.4519,1.4535,1.4539,1.4546,1.4559,1.4563,1.4568,1.457,1.4584,1.4587,1.4598,1.4602,1.4604,1.46,1.4612,1.4613,1.4612,1.4611,1.4593,1.4591,1.459,0,0,0,0,0,1.4516,1.4512,1.4518,1.4521,1.4538,1.4545,1.4548,1.4561,1.4567,1.4566,1.4577,1.4586,1.4599,1.4602,1.4604,1.4601,1.4613,1.4612,1.4611,1.4594,1.4592,1.459,0,0,0,0,0,0,1.4493,1.4514,1.4522,1.4523,1.4532,1.4549,1.4548,1.4558,1.4565,1.4566,1.4582,1.4585,1.4587,1.4594,1.4597,1.4599,1.4608,1.4607,1.4594,1.4592,1.459,1.4588,1.4612,0,0,0,0,0,1.4489,1.4494,1.4511,1.451,1.4515,1.4531,1.4534,1.4544,1.4554,1.4558,1.4569,1.4579,1.4585,1.4589,1.4595,1.4595,1.4599,1.4594,1.4592,1.459,1.4589,1.4591,1.4589,1.4609,1.4609,1.4609,0,0,1.4479,1.4491,1.4493,1.4506,1.4515,1.452,1.4534,1.4538,1.4542,1.4559,1.4563,1.4572,1.4583,1.4585,1.4586,1.4591,1.4585,1.4589,1.4588,1.4588,1.459,1.4588,1.4586,1.4608,1.4608,1.4608,0,0,1.4463,1.4472,1.4473,1.4482,1.4495,1.4506,1.4506,1.4522,1.4529,1.4533,1.4547,1.4552,1.4562,1.457,1.4576,1.4565,1.4575,1.4567,1.4556,1.4558,1.4556,1.4555,1.4552,1.455,1.4566,1.4566,1.4566,0,1.4449,1.4457,1.4472,1.4476,1.4482,1.4499,1.45,1.4508,1.4522,1.4526,1.4532,1.4546,1.4555,1.456,1.4557,1.4561,1.4562,1.4565,1.4555,1.4554,1.4553,1.455,1.4549,1.4565,1.4565,1.4565,1.4566,0,1.4439,1.4444,1.4443,1.4458,1.4464,1.4467,1.4483,1.4487,1.4496,1.4507,1.4512,1.4524,1.4534,1.4536,1.4544,1.4542,1.4544,1.4552,1.4561,1.455,1.4548,1.4547,1.4564,1.4564,1.4564,1.4565,0,0,1.4408,1.4433,1.4432,1.444,1.4457,1.4461,1.4465,1.4476,1.4479,1.4489,1.4493,1.4502,1.451,1.4516,1.4527,1.4528,1.452,1.4536,1.4536,1.4533,1.4519,1.4513,1.4511,1.4527,1.4526,1.4526,1.4518,0,1.4395,1.4403,1.4418,1.4421,1.4427,1.4445,1.4448,1.4459,1.4469,1.4475,1.4486,1.4493,1.4503,1.4507,1.4509,1.452,1.4517,1.4521,1.453,1.453,1.4527,1.451,1.4503,1.4495,1.4517,1.4517,1.4517,0,1.4381,1.4391,1.4395,1.4413,1.4416,1.4419,1.4431,1.4437,1.445,1.4457,1.4465,1.4477,1.4482,1.4491,1.4499,1.4501,1.4506,1.4512,1.4512,1.4514,1.4523,1.4511,1.4492,1.4491,1.4515,1.4515,1.4516,0,1.4359,1.4373,1.4378,1.4384,1.4405,1.4407,1.4415,1.4429,1.4435,1.4445,1.4449,1.446,1.4465,1.4473,1.4488,1.4493,1.4494,1.4504,1.4501,1.4501,1.45,1.45,1.4482,1.4503,1.4503,1.4503,1.4503,0,1.4343,1.4345,1.4369,1.4372,1.4375,1.4392,1.4395,1.4405,1.4417,1.4423,1.4438,1.4443,1.4461,1.4469,1.448,1.4485,1.4487,1.4494,1.4497,1.4492,1.4492,1.4496,1.4497,1.4503,1.4503,1.4503,1.4503,0,1.4318,1.4334,1.4341,1.4361,1.4366,1.4367,1.4384,1.4388,1.44,1.4407,1.4409,1.4427,1.4437,1.4452,1.4465,1.4473,1.4477,1.4482,1.4472,1.4474,1.447,1.4471,1.4454,1.4454,1.4475,1.4474,1.4474,0,1.4307,1.4309,1.433,1.4335,1.4343,1.4351,1.4358,1.4376,1.4382,1.4398,1.44,1.4411,1.442,1.4434,1.4449,1.4459,1.4465,1.4458,1.4466,1.4462,1.4465,1.4465,1.4466,1.4456,1.4456,1.4456,1.4456,0,1.4285,1.4294,1.4303,1.4315,1.4323,1.4334,1.4345,1.4348,1.4368,1.4375,1.4385,1.4392,1.4407,1.4418,1.4431,1.444,1.4451,1.4453,1.4453,1.4449,1.4443,1.4447,1.4468,1.4453,1.4453,1.4454,1.4454,1.4454,1.4267,1.4271,1.4286,1.4296,1.4307,1.4318,1.4322,1.4336,1.4344,1.4358,1.4368,1.4378,1.4392,1.4411,1.442,1.4428,1.4433,1.4433,1.4433,1.4432,1.4431,1.4442,1.4431,1.4431,1.4431,1.4431,1.4431,0,1.4247,1.4258,1.4268,1.4284,1.4292,1.4303,1.4316,1.4322,1.4331,1.4344,1.4353,1.4366,1.4377,1.4393,1.4405,1.4408,1.4414,1.4411,1.4411,1.4413,1.4426,1.4425,1.4406,1.4406,1.4406,1.4406,1.4406,1.4406,1.4237,1.4244,1.4254,1.4267,1.4278,1.4288,1.4295,1.4305,1.4316,1.4329,1.4339,1.4349,1.4364,1.4377,1.4388,1.4393,1.4397,1.4392,1.4398,1.441,1.4412,1.4414,1.4413,1.4393,1.4393,1.4385,1.4385,1.4385]}]]